Flag for Canada Weather past 2 weeks in Drummondville, Quebec, Canada

Now
72 °F

Mild.


Feels Like: 68 °F
Forecast: 55 / 74 °F
Wind: 7 mph from Southwest

Location: Nicolet

Current Time: Sep 3, 2015 at 12:42:27 AM

Latest Report: Sep 3, 2015 at 12:00 AM


Visibility: N/A

Pressure: 29.84 "Hg

Humidity: 92%

Dew point: 69 °F

Location of DrummondvilleLocation

Historic Weather in Drummondville — Graph

°F

Drummondville temperature yesterday

Maximum temperature yesterday: 81 °F (at 3:00 PM)
Minimum temperature yesterday: 66 °F (at 5:00 AM)
Average temperature yesterday: 72 °F

Past Weeks' High & Low Weather Summary

 TemperatureHumidityPressure
High88 °F (Aug 19, 5:00 PM)100% (Aug 24, 5:00 AM)30.15 "Hg (Aug 24, 5:00 AM)
Low52 °F (Aug 28, 6:00 AM)49% (Aug 23, 4:00 PM)29.77 "Hg (Aug 24, 7:00 PM)
Average69 °F79%29.97 "Hg
* Reported Aug 18 11:00 PM — Sep 2 11:00 PM, Drummondville, Weather by CustomWeather, © 2015

Note: Actual official high and low records may vary slightly from our data, if they occured in-between our weather recording intervals... More about our weather records

Advertising

Drummondville weather history for previous 24 hours

 ConditionsComfort  
Time TempWeatherWind HumidityBarometerVisibility
11:00 PM
Wed, Sep 2
73 °FMild.9 mph91%29.84 "HgN/A
10:00 PM73 °FMild.12 mph89%29.83 "HgN/A
9:00 PM73 °FMild.8 mph82%29.83 "HgN/A
8:00 PM75 °FMild.9 mph83%29.83 "HgN/A
7:00 PM76 °FMild.5 mph80%29.84 "HgN/A
6:00 PM78 °FWarm.6 mph76%29.84 "HgN/A
5:00 PM80 °FWarm.8 mph73%29.84 "HgN/A
4:00 PM80 °FWarm.9 mph74%29.85 "HgN/A
3:00 PM81 °FWarm.7 mph73%29.87 "HgN/A
2:00 PM79 °FWarm.7 mph77%29.89 "HgN/A
1:00 PM75 °FMild.8 mph76%29.91 "HgN/A
12:00 PM75 °FMild.7 mph77%29.92 "HgN/A
11:00 AM72 °FMild.6 mph90%29.93 "HgN/A
10:00 AM69 °FMild.7 mph94%29.94 "HgN/A
9:00 AM67 °FMild.7 mph98%29.94 "HgN/A
8:00 AM67 °FMild.7 mph97%29.94 "HgN/A
7:00 AM67 °FMild.6 mph96%29.94 "HgN/A
6:00 AM67 °FMild.6 mph96%29.94 "HgN/A
5:00 AM66 °FMild.5 mph95%29.93 "HgN/A
4:00 AM66 °FMild.5 mph93%29.94 "HgN/A
3:00 AM67 °FMild.3 mph88%29.95 "HgN/A
2:00 AM68 °FMild.3 mph92%29.96 "HgN/A
1:00 AM68 °FMild.3 mph89%29.96 "HgN/A
12:00 AM69 °FMild.7 mph88%29.95 "HgN/A
Weather by CustomWeather, © 2015

See weather overviewHow to use our weather pages